Overview Statistics Trail Chart Weather Telemetry Raw packets
 

This is the latest recevied weather packets stored in our database for station/object OH6GKW. If no packets are shown the sender has not sent any weather packets the latest 10 day(s).

<< 110 111 112 113 114 115 116 >>
Time Temp. Humidity Pressure Rain* Wind** Luminosity Snow
1787826816 20° C 53% 1025.9 hPa 0 mm - 605 W/m² -
1787826510 19.44° C 51% 1026 hPa 0 mm - 607 W/m² -
1787826224 19.44° C 54% 1026 hPa 0 mm - 605 W/m² -
1787825915 19.44° C 53% 1026 hPa 0 mm - 604 W/m² -
1787825624 18.89° C 55% 1026.1 hPa 0 mm - 605 W/m² -
1787825319 18.89° C 56% 1026.1 hPa 0 mm - 575 W/m² -
1787825024 19.44° C 57% 1026.1 hPa 0 mm - 582 W/m² -
1787824736 19.44° C 58% 1026.1 hPa 0 mm - 528 W/m² -
1787824431 19.44° C 54% 1026.1 hPa 0 mm - 581 W/m² -
1787824122 19.44° C 53% 1026.1 hPa 0 mm - 579 W/m² -
1787823819 20° C 55% 1026.2 hPa 0 mm - 595 W/m² -
1787823511 18.89° C 58% 1026.2 hPa 0 mm - 591 W/m² -
1787823226 18.89° C 58% 1026.2 hPa 0 mm - 586 W/m² -
1787822918 18.89° C 56% 1026.3 hPa 0 mm - 581 W/m² -
1787822611 18.89° C 58% 1026.3 hPa 0 mm - 575 W/m² -
1787822337 18.33° C 56% 1026.3 hPa 0 mm - 568 W/m² -
1787822032 18.33° C 59% 1026.4 hPa 0 mm - 579 W/m² -
1787821723 18.33° C 59% 1026.4 hPa 0 mm - 575 W/m² -
1787821418 17.78° C 57% 1026.4 hPa 0 mm - 595 W/m² -
1787821111 18.33° C 58% 1026.4 hPa 0 mm - 577 W/m² -
1787820824 17.78° C 59% 1026.4 hPa 0 mm - 568 W/m² -
1787820515 17.78° C 60% 1026.4 hPa 0 mm - 561 W/m² -
1787820206 17.78° C 61% 1026.5 hPa 0 mm - 552 W/m² -
1787819921 17.78° C 61% 1026.5 hPa 0 mm - 547 W/m² -
1787819612 17.78° C 60% 1026.5 hPa 0 mm - 542 W/m² -

* Rain since midnight (hover to see other rain measurements)
** Current wind speed in m/s (hover to see current wind gust speed)